Date String (YYYY-MM-DD hh:mm:ss) UTC,Instrument flags,absolute air pressure of the measurement (hPa),sample flow rate (lpm),inlet stack bypass flow (lpm),air temperature of the measurement (°C),ambient temperature measured by the external sensor (°C),aerosol sample conditioner tube jacket temperature (°C),OPC LED temperature (°C),internal box temperature (°C),relative humidity of the measurement (%),span deviation,mass concentration of particles derived from Lorenz-Mie calculation of OPC scattering (μg/m³),mass concentration of particles derived from Lorenz-Mie calculation of OPC scattering (μg/m³),mass concentration of particles derived from Lorenz-Mie calculation of OPC scattering (μg/m³)
DateTimeUTC,F1_M11,P_M11,Q1_M11,Q2_M11,T1_M11,T2_M11,T3_M11,T4_M11,T5_M11,U1_M11,ZSPAN_M11,X2_M11,X0_M11,X1_M11
2023-06-23 08:00:00,SystemResetWarning,0830.2,4.99,000.00,030.4,028.5,000.0,038.9,031.7,33.1,0002.2,0005.18,0010.86,0004.39
2023-06-23 08:01:00,SystemResetWarning,0830.3,5.00,000.00,030.4,026.5,000.0,038.8,031.7,33.3,0001.7,0005.18,0011.24,0004.39
2023-06-23 08:02:00,SystemResetWarning,0830.2,5.00,000.00,030.3,025.1,000.0,038.7,031.6,33.6,0001.8,0005.17,0011.54,0004.41
2023-06-23 08:03:00,SystemResetWarning,0830.3,5.01,000.00,030.2,024.9,000.0,038.7,031.2,33.6,0001.3,0005.17,0011.25,0004.43
2023-06-23 08:04:00,SystemResetWarning,0830.2,5.00,000.00,030.0,025.3,000.0,038.7,031.1,33.9,0000.3,0005.15,0011.29,0004.44
2023-06-23 08:05:00,SystemResetWarning,0830.2,4.99,000.00,030.0,025.8,000.0,038.6,031.1,34.0,0000.4,0005.13,0011.09,0004.45
2023-06-23 08:06:00,SystemResetWarning,0830.2,5.00,000.00,029.9,026.2,000.0,038.6,031.1,33.9,0000.0,0005.11,0011.00,0004.46
2023-06-23 08:07:00,SystemResetWarning,0830.2,5.01,000.00,029.9,026.6,000.0,038.6,031.1,33.8,0002.5,0005.13,0010.22,0004.47
2023-06-23 08:08:00,SystemResetWarning,0830.2,5.01,000.00,029.9,026.9,000.0,038.6,031.1,34.0,0002.3,0005.11,0010.11,0004.47
2023-06-23 08:09:00,SystemResetWarning,0830.2,5.00,000.00,029.9,027.2,000.0,038.6,031.1,34.2,0000.4,0005.10,0010.10,0004.48
2023-06-23 08:10:00,SystemResetWarning,0830.2,4.99,000.00,029.9,027.4,000.0,038.6,031.1,34.2,0000.8,0005.10,0010.03,0004.49
2023-06-23 08:11:00,SystemResetWarning,0830.2,5.00,000.00,029.9,027.6,000.0,038.5,031.2,34.3,0000.0,0005.06,0009.60,0004.48
2023-06-23 08:12:00,SystemResetWarning,0830.3,5.00,000.00,029.9,027.7,000.0,038.5,031.2,34.4,0000.0,0005.03,0009.06,0004.48
2023-06-23 08:13:00,SystemResetWarning,0830.3,5.00,000.00,029.9,027.8,000.0,038.5,031.3,34.4,0000.0,0005.03,0008.72,0004.48
2023-06-23 08:14:00,SystemResetWarning,0830.3,5.00,000.00,029.9,027.9,000.0,038.5,031.3,34.5,0000.0,0005.03,0008.74,0004.48
2023-06-23 08:15:00,SystemResetWarning,0830.3,5.00,000.00,029.9,028.0,000.0,038.5,031.3,34.5,0001.0,0005.03,0008.32,0004.47
2023-06-23 08:16:00,SystemResetWarning,0830.3,5.00,000.00,029.9,028.1,000.0,038.5,031.3,34.5,0000.2,0005.04,0008.51,0004.45
2023-06-23 08:17:00,SystemResetWarning,0830.3,4.99,000.00,029.9,028.1,000.0,038.5,031.3,34.4,0001.8,0005.05,0008.63,0004.45
2023-06-23 08:18:00,SystemResetWarning,0830.3,4.99,000.00,029.9,028.2,000.0,038.5,031.4,34.4,0002.3,0004.99,0008.70,0004.44
2023-06-23 08:19:00,SystemResetWarning,0830.3,5.00,000.00,029.9,028.2,000.0,038.5,031.4,34.4,0002.3,0005.01,0008.70,0004.44
2023-06-23 08:20:00,SystemResetWarning,0830.3,5.00,000.00,030.0,028.2,000.0,038.5,031.4,34.3,0002.4,0005.02,0008.63,0004.44
2023-06-23 08:21:00,SystemResetWarning,0830.2,5.00,000.00,030.0,028.3,000.0,038.5,031.4,34.2,0002.4,0005.01,0008.88,0004.43
2023-06-23 08:22:00,SystemResetWarning,0830.2,5.00,000.00,030.0,028.3,000.0,038.5,031.4,34.2,0002.4,0004.96,0008.94,0004.42
2023-06-23 08:23:00,SystemResetWarning,0830.2,5.00,000.00,030.0,028.3,000.0,038.5,031.4,34.1,0001.9,0004.98,0009.01,0004.42
2023-06-23 08:24:00,SystemResetWarning,0830.2,4.99,000.00,030.0,028.4,000.0,038.5,031.5,34.0,0002.4,0004.96,0008.95,0004.41
2023-06-23 08:25:00,SystemResetWarning,0830.2,4.99,000.00,030.0,028.4,000.0,038.5,031.5,34.0,0002.2,0004.93,0008.85,0004.39
2023-06-23 08:26:00,SystemResetWarning,0830.2,5.00,000.00,030.0,028.4,000.0,038.6,031.5,33.9,0000.0,0004.92,0008.84,0004.38
2023-06-23 08:27:00,SystemResetWarning,0830.2,5.01,000.00,030.1,028.4,000.0,038.6,031.5,33.9,0000.0,0004.90,0008.55,0004.39
2023-06-23 08:28:00,SystemResetWarning,0830.3,5.00,000.00,030.1,028.4,000.0,038.6,031.5,33.8,0000.0,0004.86,0008.34,0004.39
2023-06-23 08:29:00,SystemResetWarning,0830.3,5.01,000.00,030.1,028.5,000.0,038.6,031.5,33.7,0000.0,0004.88,0008.24,0004.39
2023-06-23 08:30:00,SystemResetWarning,0830.3,5.00,000.00,030.1,028.5,000.0,038.6,031.6,33.6,0000.0,0004.88,0008.37,0004.38
2023-06-23 08:31:00,SystemResetWarning,0830.3,5.00,000.00,030.1,028.5,000.0,038.6,031.6,33.6,0000.0,0004.85,0008.39,0004.36
2023-06-23 08:32:00,SystemResetWarning,0830.2,4.99,000.00,030.1,028.5,000.0,038.6,031.5,33.6,0000.0,0004.81,0008.09,0004.34
2023-06-23 08:33:00,SystemResetWarning,0830.3,5.00,000.00,030.1,028.5,000.0,038.6,031.6,33.6,0000.0,0004.82,0008.15,0004.32
2023-06-23 08:34:00,SystemResetWarning,0830.3,5.01,000.00,030.2,028.5,000.0,038.7,031.6,33.6,0000.0,0004.82,0008.56,0004.31
2023-06-23 08:35:00,SystemResetWarning,0830.3,5.01,000.00,030.2,028.6,000.0,038.7,031.6,33.5,0000.0,0004.82,0008.65,0004.29
2023-06-23 08:36:00,SystemResetWarning,0830.2,5.01,000.00,030.2,028.6,000.0,038.7,031.6,33.5,0000.0,0004.85,0008.74,0004.28
2023-06-23 08:37:00,SystemResetWarning,0830.2,5.00,000.00,030.2,028.6,000.0,038.7,031.6,33.4,0000.0,0004.83,0008.81,0004.28
2023-06-23 08:38:00,SystemResetWarning,0830.2,4.99,000.00,030.2,028.6,000.0,038.7,031.7,33.4,0000.0,0004.83,0008.82,0004.28
2023-06-23 08:39:00,SystemResetWarning,0830.2,5.00,000.00,030.2,028.6,000.0,038.7,031.7,33.3,0000.0,0004.81,0008.80,0004.27
2023-06-23 08:40:00,SystemResetWarning,0830.2,5.00,000.00,030.2,028.6,000.0,038.7,031.7,33.3,0002.1,0004.81,0008.76,0004.26
2023-06-23 08:41:00,SystemResetWarning,0830.2,5.00,000.00,030.2,028.6,000.0,038.8,031.7,33.2,0002.5,0004.81,0008.70,0004.25
2023-06-23 08:42:00,SystemResetWarning,0830.2,4.99,000.00,030.3,028.6,000.0,038.8,031.7,33.2,0002.6,0004.81,0008.67,0004.25
2023-06-23 08:43:00,SystemResetWarning,0830.2,5.00,000.00,030.3,028.7,000.0,038.8,031.7,33.3,0002.4,0004.78,0008.60,0004.25
2023-06-23 08:44:00,SystemResetWarning,0830.2,5.00,000.00,030.3,028.7,000.0,038.8,031.7,33.2,0002.1,0004.74,0008.32,0004.25
2023-06-23 08:45:00,SystemResetWarning,0830.1,5.00,000.00,030.3,028.7,000.0,038.8,031.7,33.1,0002.6,0004.75,0007.94,0004.25
2023-06-23 08:46:00,SystemResetWarning,0830.2,5.00,000.00,030.3,028.7,000.0,038.8,031.7,32.9,0002.6,0004.77,0008.03,0004.26
2023-06-23 08:47:00,SystemResetWarning,0830.2,5.00,000.00,030.3,028.7,000.0,038.8,031.8,32.8,0002.4,0004.75,0008.00,0004.26
2023-06-23 08:48:00,SystemResetWarning,0830.2,5.00,000.00,030.3,028.7,000.0,038.8,031.7,32.7,0000.9,0004.80,0008.00,0004.26
2023-06-23 08:49:00,SystemResetWarning,0830.1,5.01,000.00,030.3,028.8,000.0,038.8,031.8,32.8,0001.1,0004.80,0008.28,0004.25
2023-06-23 08:50:00,SystemResetWarning,0830.1,4.99,000.00,030.4,027.9,000.0,038.8,031.8,32.7,0002.5,0004.81,0008.31,0004.24
2023-06-23 08:51:00,SystemResetWarning,0830.1,5.00,000.00,030.3,025.7,000.0,038.7,031.8,32.4,0000.9,0004.78,0008.29,0004.25
2023-06-23 08:52:00,SystemResetWarning,0830.1,5.00,000.00,030.3,024.9,000.0,038.7,031.6,32.4,0000.0,0004.76,0008.20,0004.25
2023-06-23 08:53:00,SystemResetWarning,0830.1,5.01,000.00,030.1,025.1,000.0,038.7,031.1,32.7,0000.0,0004.77,0008.40,0004.25
2023-06-23 08:54:00,SystemResetWarning,0830.1,5.01,000.00,030.0,025.5,000.0,038.7,031.1,33.0,0000.0,0004.79,0008.73,0004.26
2023-06-23 08:55:00,SystemResetWarning,0830.1,5.00,000.00,030.0,026.0,000.0,038.7,031.1,34.0,0000.2,0004.85,0009.05,0004.27
2023-06-23 08:56:00,SystemResetWarning,0830.1,5.00,000.00,029.9,026.4,000.0,038.6,031.1,34.3,0001.8,0004.87,0009.38,0004.29
2023-06-23 08:57:00,SystemResetWarning,0830.1,5.00,000.00,029.9,026.8,000.0,038.6,031.2,33.8,0002.9,0004.85,0009.24,0004.29
2023-06-23 08:58:00,SystemResetWarning,0830.1,5.01,000.00,029.9,027.1,000.0,038.6,031.2,33.8,0003.0,0004.86,0009.21,0004.31
2023-06-23 08:59:00,SystemResetWarning,0830.1,4.99,000.00,029.9,027.4,000.0,038.6,031.2,34.0,0002.6,0004.84,0009.32,0004.33
